Year,Month,Day,Hour,Minute,Value (Times are PST for temperature in C)
2014,04,30,00,00,10.60
2014,04,30,00,01,10.60
2014,04,30,00,02,10.60
2014,04,30,00,03,10.60
2014,04,30,00,04,10.50
2014,04,30,00,05,10.50
2014,04,30,00,06,10.40
2014,04,30,00,07,10.40
2014,04,30,00,08,10.40
2014,04,30,00,09,10.40
2014,04,30,00,10,10.30
2014,04,30,00,11,10.30
2014,04,30,00,12,10.30
2014,04,30,00,13,10.30
2014,04,30,00,14,10.30
2014,04,30,00,15,10.30
2014,04,30,00,16,10.30
2014,04,30,00,17,10.30
2014,04,30,00,18,10.30
2014,04,30,00,19,10.30
2014,04,30,00,20,10.30
2014,04,30,00,21,10.30
2014,04,30,00,22,10.30
2014,04,30,00,23,10.30
2014,04,30,00,24,10.30
2014,04,30,00,25,10.30
2014,04,30,00,26,10.30
2014,04,30,00,27,10.30
2014,04,30,00,28,10.20
2014,04,30,00,29,10.20
2014,04,30,00,30,10.20
2014,04,30,00,31,10.20
2014,04,30,00,32,10.20
2014,04,30,00,33,10.20
2014,04,30,00,34,10.20
2014,04,30,00,35,10.10
2014,04,30,00,36,10.10
2014,04,30,00,37,10.10
2014,04,30,00,38,10.10
2014,04,30,00,39,10.10
2014,04,30,00,40,10.10
2014,04,30,00,41,10.10
2014,04,30,00,42,10.10
2014,04,30,00,43,10.10
2014,04,30,00,44,10.10
2014,04,30,00,45,10.10
2014,04,30,00,46,10.00
2014,04,30,00,47,10.00
2014,04,30,00,48,10.00
2014,04,30,00,49,9.90
2014,04,30,00,50,9.90
2014,04,30,00,51,9.80
2014,04,30,00,52,9.80
2014,04,30,00,53,9.80
2014,04,30,00,54,9.70
2014,04,30,00,55,9.70
2014,04,30,00,56,9.70
2014,04,30,00,57,9.70
2014,04,30,00,58,9.70
2014,04,30,00,59,9.70
2014,04,30,01,00,9.70
2014,04,30,01,01,9.70
2014,04,30,01,02,9.70
2014,04,30,01,03,9.70
2014,04,30,01,04,9.70
2014,04,30,01,05,9.70
2014,04,30,01,06,9.70
2014,04,30,01,07,9.70
2014,04,30,01,08,9.70
2014,04,30,01,09,9.70
2014,04,30,01,10,9.70
2014,04,30,01,11,9.70
2014,04,30,01,12,9.70
2014,04,30,01,13,9.70
2014,04,30,01,14,9.70
2014,04,30,01,15,9.70
2014,04,30,01,16,9.70
2014,04,30,01,17,9.70
2014,04,30,01,18,9.70
2014,04,30,01,19,9.60
2014,04,30,01,20,9.60
2014,04,30,01,21,9.60
2014,04,30,01,22,9.60
2014,04,30,01,23,9.60
2014,04,30,01,24,9.60
2014,04,30,01,25,9.60
2014,04,30,01,26,9.60
2014,04,30,01,27,9.60
2014,04,30,01,28,9.50
2014,04,30,01,29,9.50
2014,04,30,01,30,9.50
2014,04,30,01,31,9.50
2014,04,30,01,32,9.50
2014,04,30,01,33,9.50
2014,04,30,01,34,9.50
2014,04,30,01,35,9.60
2014,04,30,01,36,9.60
2014,04,30,01,37,9.50
2014,04,30,01,38,9.50
2014,04,30,01,39,9.50
2014,04,30,01,40,9.50
2014,04,30,01,41,9.50
2014,04,30,01,42,9.50
2014,04,30,01,43,9.50
2014,04,30,01,44,9.50
2014,04,30,01,45,9.50
2014,04,30,01,46,9.50
2014,04,30,01,47,9.50
2014,04,30,01,48,9.60
2014,04,30,01,49,9.60
2014,04,30,01,50,9.60
2014,04,30,01,51,9.60
2014,04,30,01,52,9.50
2014,04,30,01,53,9.50
2014,04,30,01,54,9.50
2014,04,30,01,55,9.50
2014,04,30,01,56,9.50
2014,04,30,01,57,9.60
2014,04,30,01,58,9.60
2014,04,30,01,59,9.60
2014,04,30,02,00,9.60
2014,04,30,02,01,9.60
2014,04,30,02,02,9.60
2014,04,30,02,03,9.60
2014,04,30,02,04,9.60
2014,04,30,02,05,9.50
2014,04,30,02,06,9.50
2014,04,30,02,07,9.50
2014,04,30,02,08,9.50
2014,04,30,02,09,9.50
2014,04,30,02,10,9.50
2014,04,30,02,11,9.50
2014,04,30,02,12,9.50
2014,04,30,02,13,9.40
2014,04,30,02,14,9.40
2014,04,30,02,15,9.40
2014,04,30,02,16,9.40
2014,04,30,02,17,9.40
2014,04,30,02,18,9.40
2014,04,30,02,19,9.40
2014,04,30,02,20,9.30
2014,04,30,02,21,9.30
2014,04,30,02,22,9.30
2014,04,30,02,23,9.30
2014,04,30,02,24,9.30
2014,04,30,02,25,9.30
2014,04,30,02,26,9.30
2014,04,30,02,27,9.30
2014,04,30,02,28,9.30
2014,04,30,02,29,9.20
2014,04,30,02,30,9.20
2014,04,30,02,31,9.20
2014,04,30,02,32,9.20
2014,04,30,02,33,9.10
2014,04,30,02,34,9.10
2014,04,30,02,35,9.10
2014,04,30,02,36,9.10
2014,04,30,02,37,9.10
2014,04,30,02,38,9.10
2014,04,30,02,39,9.00
2014,04,30,02,40,9.00
2014,04,30,02,41,9.00
2014,04,30,02,42,9.00
2014,04,30,02,43,8.90
2014,04,30,02,44,8.90
2014,04,30,02,45,8.90
2014,04,30,02,46,8.90
2014,04,30,02,47,8.90
2014,04,30,02,48,8.90
2014,04,30,02,49,8.90
2014,04,30,02,50,8.90
2014,04,30,02,51,8.90
2014,04,30,02,52,8.90
2014,04,30,02,53,8.90
2014,04,30,02,54,8.90
2014,04,30,02,55,8.90
2014,04,30,02,56,8.90
2014,04,30,02,57,8.90
2014,04,30,02,58,8.90
2014,04,30,02,59,8.90
2014,04,30,03,00,8.90
2014,04,30,03,01,8.90
2014,04,30,03,02,8.90
2014,04,30,03,03,8.90
2014,04,30,03,04,8.90
2014,04,30,03,05,8.90
2014,04,30,03,06,8.80
2014,04,30,03,07,8.80
2014,04,30,03,08,8.80
2014,04,30,03,09,8.80
2014,04,30,03,10,8.80
2014,04,30,03,11,8.80
2014,04,30,03,12,8.80
2014,04,30,03,13,8.80
2014,04,30,03,14,8.80
2014,04,30,03,15,8.80
2014,04,30,03,16,8.80
2014,04,30,03,17,8.80
2014,04,30,03,18,8.80
2014,04,30,03,19,8.80
2014,04,30,03,20,8.80
2014,04,30,03,21,8.80
2014,04,30,03,22,8.80
2014,04,30,03,23,8.80
2014,04,30,03,24,8.80
2014,04,30,03,25,8.70
2014,04,30,03,26,8.70
2014,04,30,03,27,8.70
2014,04,30,03,28,8.70
2014,04,30,03,29,8.70
2014,04,30,03,30,8.60
2014,04,30,03,31,8.60
2014,04,30,03,32,8.60
2014,04,30,03,33,8.60
2014,04,30,03,34,8.60
2014,04,30,03,35,8.60
2014,04,30,03,36,8.60
2014,04,30,03,37,8.50
2014,04,30,03,38,8.50
2014,04,30,03,39,8.50
2014,04,30,03,40,8.40
2014,04,30,03,41,8.40
2014,04,30,03,42,8.40
2014,04,30,03,43,8.30
2014,04,30,03,44,8.30
2014,04,30,03,45,8.30
2014,04,30,03,46,8.30
2014,04,30,03,47,8.20
2014,04,30,03,48,8.20
2014,04,30,03,49,8.20
2014,04,30,03,50,8.20
2014,04,30,03,51,8.20
2014,04,30,03,52,8.20
2014,04,30,03,53,8.20
2014,04,30,03,54,8.20
2014,04,30,03,55,8.20
2014,04,30,03,56,8.20
2014,04,30,03,57,8.20
2014,04,30,03,58,8.20
2014,04,30,03,59,8.20
2014,04,30,04,00,8.20
2014,04,30,04,01,8.20
2014,04,30,04,02,8.20
2014,04,30,04,03,8.20
2014,04,30,04,04,8.20
2014,04,30,04,05,8.20
2014,04,30,04,06,8.30
2014,04,30,04,07,8.30
2014,04,30,04,08,8.30
2014,04,30,04,09,8.30
2014,04,30,04,10,8.30
2014,04,30,04,11,8.30
2014,04,30,04,12,8.30
2014,04,30,04,13,8.30
2014,04,30,04,14,8.30
2014,04,30,04,15,8.30
2014,04,30,04,16,8.20
2014,04,30,04,17,8.20
2014,04,30,04,18,8.20
2014,04,30,04,19,8.10
2014,04,30,04,20,8.10
2014,04,30,04,21,8.10
2014,04,30,04,22,8.00
2014,04,30,04,23,8.00
2014,04,30,04,24,7.90
2014,04,30,04,25,7.90
2014,04,30,04,26,7.90
2014,04,30,04,27,7.90
2014,04,30,04,28,7.80
2014,04,30,04,29,7.80
2014,04,30,04,30,7.80
2014,04,30,04,31,7.80
2014,04,30,04,32,7.80
2014,04,30,04,33,7.80
2014,04,30,04,34,7.80
2014,04,30,04,35,7.70
2014,04,30,04,36,7.70
2014,04,30,04,37,7.70
2014,04,30,04,38,7.70
2014,04,30,04,39,7.70
2014,04,30,04,40,7.70
2014,04,30,04,41,7.70
2014,04,30,04,42,7.60
2014,04,30,04,43,7.60
2014,04,30,04,44,7.60
2014,04,30,04,45,7.60
2014,04,30,04,46,7.60
2014,04,30,04,47,7.60
2014,04,30,04,48,7.60
2014,04,30,04,49,7.60
2014,04,30,04,50,7.60
2014,04,30,04,51,7.60
2014,04,30,04,52,7.60
2014,04,30,04,53,7.60
2014,04,30,04,54,7.60
2014,04,30,04,55,7.60
2014,04,30,04,56,7.60
2014,04,30,04,57,7.50
2014,04,30,04,58,7.50
2014,04,30,04,59,7.50
2014,04,30,05,00,7.40
2014,04,30,05,01,7.40
2014,04,30,05,02,7.40
2014,04,30,05,03,7.40
2014,04,30,05,04,7.40
2014,04,30,05,05,7.40
2014,04,30,05,06,7.40
2014,04,30,05,07,7.40
2014,04,30,05,08,7.40
2014,04,30,05,09,7.40
2014,04,30,05,10,7.40
2014,04,30,05,11,7.40
2014,04,30,05,12,7.40
2014,04,30,05,13,7.30
2014,04,30,05,14,7.30
2014,04,30,05,15,7.30
2014,04,30,05,16,7.30
2014,04,30,05,17,7.30
2014,04,30,05,18,7.30
2014,04,30,05,19,7.30
2014,04,30,05,20,7.30
2014,04,30,05,21,7.30
2014,04,30,05,22,7.30
2014,04,30,05,23,7.30
2014,04,30,05,24,7.30
2014,04,30,05,25,7.30
2014,04,30,05,26,7.30
2014,04,30,05,27,7.30
2014,04,30,05,28,7.30
2014,04,30,05,29,7.30
2014,04,30,05,30,7.30
2014,04,30,05,31,7.30
2014,04,30,05,32,7.30
2014,04,30,05,33,7.30
2014,04,30,05,34,7.30
2014,04,30,05,35,7.20
2014,04,30,05,36,7.20
2014,04,30,05,37,7.20
2014,04,30,05,38,7.20
2014,04,30,05,39,7.20
2014,04,30,05,40,7.20
2014,04,30,05,41,7.20
2014,04,30,05,42,7.20
2014,04,30,05,43,7.20
2014,04,30,05,44,7.20
2014,04,30,05,45,7.20
2014,04,30,05,46,7.20
2014,04,30,05,47,7.20
2014,04,30,05,48,7.20
2014,04,30,05,49,7.20
2014,04,30,05,50,7.20
2014,04,30,05,51,7.20
2014,04,30,05,52,7.20
2014,04,30,05,53,7.20
2014,04,30,05,54,7.20
2014,04,30,05,55,7.20
2014,04,30,05,56,7.20
2014,04,30,05,57,7.20
2014,04,30,05,58,7.20
2014,04,30,05,59,7.20
2014,04,30,06,00,7.20
2014,04,30,06,01,7.20
2014,04,30,06,02,7.20
2014,04,30,06,03,7.20
2014,04,30,06,04,7.20
2014,04,30,06,05,7.20
2014,04,30,06,06,7.20
2014,04,30,06,07,7.20
2014,04,30,06,08,7.20
2014,04,30,06,09,7.20
2014,04,30,06,10,7.20
2014,04,30,06,11,7.20
2014,04,30,06,12,7.30
2014,04,30,06,13,7.30
2014,04,30,06,14,7.30
2014,04,30,06,15,7.30
2014,04,30,06,16,7.30
2014,04,30,06,17,7.30
2014,04,30,06,18,7.20
2014,04,30,06,19,7.20
2014,04,30,06,20,7.20
2014,04,30,06,21,7.20
2014,04,30,06,22,7.20
2014,04,30,06,23,7.30
2014,04,30,06,24,7.30
2014,04,30,06,25,7.30
2014,04,30,06,26,7.30
2014,04,30,06,27,7.30
2014,04,30,06,28,7.30
2014,04,30,06,29,7.30
2014,04,30,06,30,7.30
2014,04,30,06,31,7.40
2014,04,30,06,32,7.40
2014,04,30,06,33,7.40
2014,04,30,06,34,7.40
2014,04,30,06,35,7.40
2014,04,30,06,36,7.50
2014,04,30,06,37,7.50
2014,04,30,06,38,7.50
2014,04,30,06,39,7.50
2014,04,30,06,40,7.60
2014,04,30,06,41,7.60
2014,04,30,06,42,7.60
2014,04,30,06,43,7.70
2014,04,30,06,44,7.70
2014,04,30,06,45,7.70
2014,04,30,06,46,7.70
2014,04,30,06,47,7.80
2014,04,30,06,48,7.80
2014,04,30,06,49,7.80
2014,04,30,06,50,7.90
2014,04,30,06,51,7.90
2014,04,30,06,52,8.00
2014,04,30,06,53,8.10
2014,04,30,06,54,8.10
2014,04,30,06,55,8.20
2014,04,30,06,56,8.20
2014,04,30,06,57,8.30
2014,04,30,06,58,8.30
2014,04,30,06,59,8.30
2014,04,30,07,00,8.40
2014,04,30,07,01,8.40
2014,04,30,07,02,8.50
2014,04,30,07,03,8.50
2014,04,30,07,04,8.60
2014,04,30,07,05,8.60
2014,04,30,07,06,8.70
2014,04,30,07,07,8.70
2014,04,30,07,08,8.80
2014,04,30,07,09,8.80
2014,04,30,07,10,8.80
2014,04,30,07,11,8.90
2014,04,30,07,12,8.90
2014,04,30,07,13,8.90
2014,04,30,07,14,8.90
2014,04,30,07,15,9.00
2014,04,30,07,16,9.00
2014,04,30,07,17,9.10
2014,04,30,07,18,9.10
2014,04,30,07,19,9.10
2014,04,30,07,20,9.10
2014,04,30,07,21,9.20
2014,04,30,07,22,9.20
2014,04,30,07,23,9.20
2014,04,30,07,24,9.20
2014,04,30,07,25,9.30
2014,04,30,07,26,9.30
2014,04,30,08,40,13.20
2014,04,30,08,41,13.20
2014,04,30,08,42,13.30
2014,04,30,08,43,13.40
2014,04,30,08,44,13.50
2014,04,30,08,45,13.50
2014,04,30,08,46,13.60
2014,04,30,08,47,13.60
2014,04,30,08,48,13.70
2014,04,30,08,49,13.80
2014,04,30,08,50,13.80
2014,04,30,08,51,13.90
2014,04,30,08,52,13.90
2014,04,30,08,53,14.00
2014,04,30,08,54,14.10
2014,04,30,08,55,14.20
2014,04,30,08,56,14.30
2014,04,30,08,57,14.40
2014,04,30,08,58,14.50
2014,04,30,08,59,14.60
2014,04,30,09,00,14.70
2014,04,30,09,01,14.80
2014,04,30,09,02,14.80
2014,04,30,09,03,14.90
2014,04,30,09,04,15.00
2014,04,30,09,05,15.00
2014,04,30,09,06,15.00
2014,04,30,09,07,15.00
2014,04,30,09,08,15.10
2014,04,30,09,09,15.20
2014,04,30,09,10,15.20
2014,04,30,09,11,15.30
2014,04,30,09,12,15.30
2014,04,30,09,13,15.30
2014,04,30,09,14,15.40
2014,04,30,09,15,15.50
2014,04,30,09,16,15.50
2014,04,30,09,17,15.60
2014,04,30,09,18,15.70
2014,04,30,09,19,15.80
2014,04,30,09,20,15.80
2014,04,30,09,21,15.90
2014,04,30,09,22,16.00
2014,04,30,09,23,16.10
2014,04,30,09,24,16.10
2014,04,30,09,25,16.20
2014,04,30,18,23,24.40
2014,04,30,18,24,24.40
2014,04,30,18,25,24.40
2014,04,30,18,26,24.30
2014,04,30,18,27,24.30
2014,04,30,18,28,24.30
2014,04,30,18,29,24.30
2014,04,30,18,30,24.30
2014,04,30,18,31,24.30
2014,04,30,18,32,24.30
2014,04,30,18,33,24.20
2014,04,30,18,34,24.20
2014,04,30,18,35,24.20
2014,04,30,18,36,24.20
2014,04,30,18,37,24.20
2014,04,30,18,38,24.10
2014,04,30,18,39,24.10
2014,04,30,18,40,24.10
2014,04,30,18,41,24.10
2014,04,30,18,42,24.00
2014,04,30,18,43,24.00
2014,04,30,18,44,23.90
2014,04,30,18,45,23.90
2014,04,30,18,46,23.90
2014,04,30,18,47,23.90
2014,04,30,18,48,23.80
2014,04,30,18,49,23.80
2014,04,30,18,50,23.80
2014,04,30,18,51,23.80
2014,04,30,18,52,23.80
2014,04,30,18,53,23.80
2014,04,30,18,54,23.80
2014,04,30,18,55,23.80
2014,04,30,18,56,23.80
2014,04,30,18,57,23.80
2014,04,30,18,58,23.90
2014,04,30,18,59,23.90
2014,04,30,19,00,23.90
2014,04,30,19,01,24.00
2014,04,30,19,02,24.00
2014,04,30,19,03,24.10
2014,04,30,19,04,24.10
2014,04,30,19,05,24.10
2014,04,30,19,06,24.20
2014,04,30,19,07,24.20
2014,04,30,19,08,24.20
2014,04,30,19,09,24.20
2014,04,30,19,10,24.20
2014,04,30,19,11,24.20
2014,04,30,19,12,24.20
2014,04,30,19,13,24.10
2014,04,30,19,14,24.10
2014,04,30,19,15,24.10
2014,04,30,19,16,24.10
2014,04,30,19,17,24.10
2014,04,30,19,18,24.10
2014,04,30,19,19,24.10
2014,04,30,19,20,24.10
2014,04,30,19,21,24.00
2014,04,30,19,22,24.00
2014,04,30,19,23,23.90
2014,04,30,19,24,23.80
2014,04,30,19,25,23.70
2014,04,30,19,26,23.60
2014,04,30,19,27,23.60
2014,04,30,19,28,23.50
2014,04,30,19,29,23.40
2014,04,30,19,30,23.30
2014,04,30,19,31,23.20
2014,04,30,19,32,23.10
2014,04,30,19,33,23.00
2014,04,30,19,34,22.90
2014,04,30,19,35,22.80
2014,04,30,19,36,22.80
2014,04,30,19,37,22.80
2014,04,30,19,38,22.70
2014,04,30,19,39,22.70
2014,04,30,19,40,22.60
2014,04,30,19,41,22.60
2014,04,30,19,42,22.50
2014,04,30,19,43,22.50
2014,04,30,19,44,22.40
2014,04,30,19,45,22.40
2014,04,30,19,46,22.40
2014,04,30,19,47,22.40
2014,04,30,19,48,22.30
2014,04,30,19,49,22.30
2014,04,30,19,50,22.30
2014,04,30,19,51,22.30
2014,04,30,19,52,22.20
2014,04,30,19,53,22.20
2014,04,30,19,54,22.20
2014,04,30,19,55,22.20
2014,04,30,19,56,22.20
2014,04,30,19,57,22.10
2014,04,30,19,58,22.10
2014,04,30,19,59,22.10
2014,04,30,20,00,22.10
2014,04,30,20,01,22.10
2014,04,30,20,02,22.00
2014,04,30,20,03,22.00
2014,04,30,20,04,22.00
2014,04,30,20,05,22.00
2014,04,30,20,06,21.90
2014,04,30,20,07,21.90
2014,04,30,20,08,21.90
2014,04,30,20,09,21.90
2014,04,30,20,10,21.90
2014,04,30,20,11,21.80
2014,04,30,20,12,21.80
2014,04,30,20,13,21.80
2014,04,30,20,14,21.80
2014,04,30,20,15,21.80
2014,04,30,20,16,21.70
2014,04,30,20,17,21.70
2014,04,30,20,18,21.70
2014,04,30,20,19,21.60
2014,04,30,20,20,21.60
2014,04,30,20,21,21.60
2014,04,30,20,22,21.50
2014,04,30,20,23,21.50
2014,04,30,20,24,21.40
2014,04,30,20,25,21.40
2014,04,30,20,26,21.30
2014,04,30,20,27,21.30
2014,04,30,20,28,21.20
2014,04,30,20,29,21.20
2014,04,30,20,30,21.10
2014,04,30,20,31,21.10
2014,04,30,20,32,21.00
2014,04,30,20,33,21.00
2014,04,30,20,34,20.90
2014,04,30,20,35,20.90
2014,04,30,20,36,20.80
2014,04,30,20,37,20.80
2014,04,30,20,38,20.70
2014,04,30,20,39,20.70
2014,04,30,20,40,20.70
2014,04,30,20,41,20.60
2014,04,30,20,42,20.60
2014,04,30,20,43,20.50
2014,04,30,20,44,20.50
2014,04,30,20,45,20.40
2014,04,30,20,46,20.40
2014,04,30,20,47,20.30
2014,04,30,20,48,20.30
2014,04,30,20,49,20.20
2014,04,30,20,50,20.20
2014,04,30,20,51,20.20
2014,04,30,20,52,20.10
2014,04,30,20,53,20.10
2014,04,30,20,54,20.00
2014,04,30,20,55,20.00
2014,04,30,20,56,20.00
2014,04,30,20,57,19.90
2014,04,30,20,58,19.90
2014,04,30,20,59,19.90
2014,04,30,21,00,19.80
2014,04,30,21,01,19.80
2014,04,30,21,02,19.70
2014,04,30,21,03,19.70
2014,04,30,21,04,19.60
2014,04,30,21,05,19.50
2014,04,30,21,06,19.50
2014,04,30,21,07,19.40
2014,04,30,21,08,19.30
2014,04,30,21,09,19.20
2014,04,30,21,10,19.20
2014,04,30,21,11,19.10
2014,04,30,21,12,19.10
2014,04,30,21,13,19.00
2014,04,30,21,14,19.00
2014,04,30,21,15,18.90
2014,04,30,21,16,18.90
2014,04,30,21,17,18.90
2014,04,30,21,18,18.90
2014,04,30,21,19,18.90
2014,04,30,21,20,18.80
2014,04,30,21,21,18.80
2014,04,30,21,22,18.80
2014,04,30,21,23,18.80
2014,04,30,21,24,18.70
2014,04,30,21,25,18.70
2014,04,30,21,26,18.70
2014,04,30,21,27,18.60
2014,04,30,21,28,18.60
2014,04,30,21,29,18.60
2014,04,30,21,30,18.50
2014,04,30,21,31,18.40
2014,04,30,21,32,18.40
2014,04,30,21,33,18.30
2014,04,30,21,34,18.30
2014,04,30,21,35,18.30
2014,04,30,21,36,18.20
2014,04,30,21,37,18.20
2014,04,30,21,38,18.10
2014,04,30,21,39,18.10
2014,04,30,21,40,18.10
2014,04,30,21,41,18.00
2014,04,30,21,42,17.90
2014,04,30,21,43,17.90
2014,04,30,21,44,17.80
2014,04,30,21,45,17.80
2014,04,30,21,46,17.80
2014,04,30,21,47,17.70
2014,04,30,21,48,17.70
2014,04,30,21,49,17.70
2014,04,30,21,50,17.70
2014,04,30,21,51,17.60
2014,04,30,21,52,17.60
2014,04,30,21,53,17.60
2014,04,30,21,54,17.60
2014,04,30,21,55,17.50
2014,04,30,21,56,17.50
2014,04,30,21,57,17.50
2014,04,30,21,58,17.50
2014,04,30,21,59,17.40
2014,04,30,22,00,17.40
2014,04,30,22,01,17.40
2014,04,30,22,02,17.40
2014,04,30,22,03,17.30
2014,04,30,22,04,17.30
2014,04,30,22,05,17.30
2014,04,30,22,06,17.20
2014,04,30,22,07,17.20
2014,04,30,22,08,17.20
2014,04,30,22,09,17.10
2014,04,30,22,10,17.10
2014,04,30,22,11,17.10
2014,04,30,22,12,17.10
2014,04,30,22,13,17.00
2014,04,30,22,14,17.00
2014,04,30,22,15,17.00
2014,04,30,22,16,16.90
2014,04,30,22,17,16.90
2014,04,30,22,18,16.90
2014,04,30,22,19,16.90
2014,04,30,22,20,16.80
2014,04,30,22,21,16.80
2014,04,30,22,22,16.80
2014,04,30,22,23,16.80
2014,04,30,22,24,16.80
2014,04,30,22,25,16.70
2014,04,30,22,26,16.70
2014,04,30,22,27,16.70
2014,04,30,22,28,16.60
2014,04,30,22,29,16.60
2014,04,30,22,30,16.60
2014,04,30,22,31,16.60
2014,04,30,22,32,16.50
2014,04,30,22,33,16.50
2014,04,30,22,34,16.40
2014,04,30,22,35,16.40
2014,04,30,22,36,16.40
2014,04,30,22,37,16.30
2014,04,30,22,38,16.30
2014,04,30,22,39,16.20
2014,04,30,22,40,16.20
2014,04,30,22,41,16.10
2014,04,30,22,42,16.10
2014,04,30,22,43,16.00
2014,04,30,22,44,16.00
2014,04,30,22,45,15.90
2014,04,30,22,46,15.90
2014,04,30,22,47,15.90
2014,04,30,22,48,15.80
2014,04,30,22,49,15.80
2014,04,30,22,50,15.70
2014,04,30,22,51,15.70
2014,04,30,22,52,15.70
2014,04,30,22,53,15.60
2014,04,30,22,54,15.50
2014,04,30,22,55,15.50
2014,04,30,22,56,15.40
2014,04,30,22,57,15.40
2014,04,30,22,58,15.30
2014,04,30,22,59,15.30
2014,04,30,23,00,15.20
2014,04,30,23,01,15.10
2014,04,30,23,02,15.00
2014,04,30,23,03,15.00
2014,04,30,23,04,15.00
2014,04,30,23,05,15.00
2014,04,30,23,06,15.00
2014,04,30,23,07,15.00
2014,04,30,23,08,14.90
2014,04,30,23,09,14.80
2014,04,30,23,10,14.80
2014,04,30,23,11,14.80
2014,04,30,23,12,14.70
2014,04,30,23,13,14.70
2014,04,30,23,14,14.70
2014,04,30,23,15,14.60
2014,04,30,23,16,14.60
2014,04,30,23,17,14.60
2014,04,30,23,18,14.50
2014,04,30,23,19,14.50
2014,04,30,23,20,14.40
2014,04,30,23,21,14.40
2014,04,30,23,22,14.40
2014,04,30,23,23,14.30
2014,04,30,23,24,14.30
2014,04,30,23,25,14.30
2014,04,30,23,26,14.30
2014,04,30,23,27,14.20
2014,04,30,23,28,14.20
2014,04,30,23,29,14.20
2014,04,30,23,30,14.10
2014,04,30,23,31,14.10
2014,04,30,23,32,14.10
2014,04,30,23,33,14.10
2014,04,30,23,34,14.00
2014,04,30,23,35,14.00
2014,04,30,23,36,14.00
2014,04,30,23,37,14.00
2014,04,30,23,38,13.90
2014,04,30,23,39,13.90
2014,04,30,23,40,13.90
2014,04,30,23,41,13.90
2014,04,30,23,42,13.90
2014,04,30,23,43,13.90
2014,04,30,23,44,13.90
2014,04,30,23,45,13.90
2014,04,30,23,46,13.90
2014,04,30,23,47,13.90
2014,04,30,23,48,14.00
2014,04,30,23,49,14.00
2014,04,30,23,50,14.00
2014,04,30,23,51,14.00
2014,04,30,23,52,14.00
2014,04,30,23,53,14.00
2014,04,30,23,54,14.00
2014,04,30,23,55,14.00
2014,04,30,23,56,13.90
2014,04,30,23,57,13.90
2014,04,30,23,58,13.90
2014,04,30,23,59,13.90
